Weather History for KVCV - February, 2013

Change the Weather History Date:

Tuesday, February 12, 2013

  Actual Average (KSBD) Record (KSBD)
Temperature  
Mean Temperature 38 °F -  
Max Temperature 53 °F 68 °F 82 °F (2014)
Min Temperature 23 °F 42 °F 37 °F (2011)
Degree Days  
Heating Degree Days 27    
Moisture  
Dew Point 9 °F    
Average Humidity 32    
Maximum Humidity 59    
Minimum Humidity 15    
Precipitation  
Precipitation 0.00 in - - ()
Sea Level Pressure  
Sea Level Pressure 30.28 in    
Wind  
Wind Speed 3 mph (SE)    
Max Wind Speed 12 mph    
Max Gust Speed -    
Visibility 10 miles    
Events      
Averages and records for this station are not official NWS values.
T = Trace of Precipitation, MM = Missing Value Source: NWS Daily Summary

Daily Weather History Graph

Daily Weather History Graph

Search for Another Location

Airport or City:

Trip Planner

Search our weather history database for the weather conditions in past years. The results will help you decide how hot, cold, wet, or windy it might be!

Date:

Astronomy

Feb. 12, 2013 Rise Set
Actual Time 6:37 AM PST 5:30 PM PST
Civil Twilight 6:11 AM PST 5:56 PM PST
Nautical Twilight 5:42 AM PST 6:25 PM PST
Astronomical Twilight 5:12 AM PST 6:55 PM PST
Moon 7:46 AM PST (2/12) 8:25 PM PST (2/12)
Length of Visible Light 11h 44m
Length of Day
10h 52m
Waxing Crescent, 8% of the Moon is Illuminated
Feb 12
Waxing Crescent
Feb 17
First Quarter
Feb 25
Full
Mar 4
Last Quarter
Mar 11
New

Hourly Weather History & Observations

Time (PST) Temp. Windchill Dew Point Humidity Pressure Visibility Wind Dir Wind Speed Gust Speed Precip Events Conditions
12:15 AM 30.2 °F - 6.8 °F 37% 30.23 in 10.0 mi Calm Calm - N/A   Clear
12:35 AM 30.2 °F - 6.8 °F 37% 30.23 in 10.0 mi Calm Calm - N/A   Clear
12:55 AM 30.2 °F 26.7 °F 6.8 °F 37% 30.23 in 10.0 mi ESE 3.5 mph - N/A   Clear
1:15 AM 30.2 °F 23.4 °F 6.8 °F 37% 30.23 in 10.0 mi SE 6.9 mph - N/A   Clear
1:35 AM 30.2 °F 23.4 °F 8.6 °F 40% 30.23 in 10.0 mi SE 6.9 mph - N/A   Clear
1:55 AM 30.2 °F 22.6 °F 6.8 °F 37% 30.23 in 10.0 mi SE 8.1 mph - N/A   Clear
2:15 AM 28.4 °F - 8.6 °F 43% 30.23 in 10.0 mi Calm Calm - N/A   Clear
2:35 AM 26.6 °F - 8.6 °F 47% 30.23 in 10.0 mi Calm Calm - N/A   Clear
2:55 AM 24.8 °F 20.5 °F 8.6 °F 50% 30.24 in 10.0 mi South 3.5 mph - N/A   Clear
3:15 AM 24.8 °F 20.5 °F 8.6 °F 50% 30.24 in 10.0 mi SSE 3.5 mph - N/A   Clear
3:35 AM 24.8 °F 19.1 °F 8.6 °F 50% 30.24 in 10.0 mi SE 4.6 mph - N/A   Clear
3:55 AM 26.6 °F - 10.4 °F 51% 30.25 in 10.0 mi Calm Calm - N/A   Clear
4:15 AM 23.0 °F - 8.6 °F 54% 30.26 in 10.0 mi Calm Calm - N/A   Clear
4:35 AM 24.8 °F - 10.4 °F 54% 30.26 in 10.0 mi Calm Calm - N/A   Clear
4:55 AM 26.6 °F 21.2 °F 10.4 °F 51% 30.27 in 10.0 mi SE 4.6 mph - N/A   Clear
5:15 AM 26.6 °F 21.2 °F 10.4 °F 51% 30.27 in 10.0 mi SE 4.6 mph - N/A   Clear
5:35 AM 23.0 °F 17.0 °F 10.4 °F 59% 30.28 in 10.0 mi SSE 4.6 mph - N/A   Clear
5:55 AM 23.0 °F 13.9 °F 10.4 °F 59% 30.28 in 10.0 mi SSE 8.1 mph - N/A   Clear
6:15 AM 23.0 °F 15.8 °F 10.4 °F 59% 30.29 in 10.0 mi South 5.8 mph - N/A   Clear
6:35 AM 23.0 °F 15.8 °F 10.4 °F 59% 30.30 in 10.0 mi South 5.8 mph - N/A   Clear
6:55 AM 24.8 °F 20.5 °F 10.4 °F 54% 30.31 in 10.0 mi South 3.5 mph - N/A   Clear
7:15 AM 24.8 °F 20.5 °F 12.2 °F 59% 30.32 in 10.0 mi SSE 3.5 mph - N/A   Clear
7:35 AM 28.4 °F 24.6 °F 12.2 °F 51% 30.32 in 10.0 mi SSE 3.5 mph - N/A   Clear
7:55 AM 32.0 °F 28.7 °F 10.4 °F 41% 30.33 in 10.0 mi SE 3.5 mph - N/A   Clear
8:15 AM 35.6 °F - 8.6 °F 33% 30.33 in 10.0 mi Calm Calm - N/A   Scattered Clouds
8:35 AM 37.4 °F - 8.6 °F 30% 30.33 in 10.0 mi Calm Calm - N/A   Clear
8:55 AM 39.2 °F - 8.6 °F 28% 30.33 in 10.0 mi Calm Calm - N/A   Clear
9:15 AM 41.0 °F - 8.6 °F 26% 30.33 in 10.0 mi Calm Calm - N/A   Clear
9:35 AM 42.8 °F - 6.8 °F 23% 30.34 in 7.0 mi Calm Calm - N/A   Clear
9:55 AM 44.6 °F - 6.8 °F 21% 30.34 in 10.0 mi Calm Calm - N/A   Clear
10:15 AM 46.4 °F - 5.0 °F 18% 30.34 in 10.0 mi Calm Calm - N/A   Unknown
10:35 AM 48.2 °F - 5.0 °F 17% 30.34 in 10.0 mi Calm Calm - N/A   Unknown
10:55 AM 48.2 °F - 6.8 °F 19% 30.33 in 10.0 mi Calm Calm - N/A   Unknown
11:15 AM 50.0 °F - 6.8 °F 17% 30.33 in 10.0 mi NNE 8.1 mph - N/A   Unknown
11:35 AM 51.8 °F - 6.8 °F 16% 30.32 in 10.0 mi NNW 11.5 mph - N/A   Unknown
11:55 AM 51.8 °F - 6.8 °F 16% 30.31 in 10.0 mi Calm Calm - N/A   Unknown
12:15 PM 51.8 °F - 6.8 °F 16% 30.30 in 10.0 mi North 3.5 mph - N/A   Unknown
12:35 PM 51.8 °F - 8.6 °F 18% 30.30 in 10.0 mi North 11.5 mph - N/A   Unknown
12:55 PM 51.8 °F - 6.8 °F 16% 30.29 in 10.0 mi NE 9.2 mph - N/A   Clear
1:15 PM 51.8 °F - 6.8 °F 16% 30.28 in 10.0 mi North 5.8 mph - N/A   Clear
1:35 PM 53.6 °F - 6.8 °F 15% 30.27 in 10.0 mi NNE 9.2 mph - N/A   Unknown
1:55 PM 51.8 °F - 6.8 °F 16% 30.26 in 10.0 mi Calm Calm - N/A   Unknown
2:15 PM 53.6 °F - 6.8 °F 15% 30.26 in 10.0 mi WNW 3.5 mph - N/A   Unknown
2:35 PM 53.6 °F - 6.8 °F 15% 30.26 in 10.0 mi North 5.8 mph - N/A   Unknown
2:55 PM 51.8 °F - 6.8 °F 16% 30.26 in 10.0 mi Calm Calm - N/A   Unknown
3:15 PM 53.6 °F - 6.8 °F 15% 30.26 in 10.0 mi WNW 6.9 mph - N/A   Clear
3:35 PM 53.6 °F - 6.8 °F 15% 30.26 in 10.0 mi Calm Calm - N/A   Unknown
3:55 PM 53.6 °F - 6.8 °F 15% 30.26 in 10.0 mi North 6.9 mph - N/A   Unknown
4:15 PM 53.6 °F - 6.8 °F 15% 30.25 in 10.0 mi NNE 4.6 mph - N/A   Clear
4:35 PM 51.8 °F - 6.8 °F 16% 30.26 in 10.0 mi North 5.8 mph - N/A   Clear
4:55 PM 51.8 °F - 6.8 °F 16% 30.25 in 10.0 mi North 4.6 mph - N/A   Clear
5:15 PM 51.8 °F - 6.8 °F 16% 30.26 in 10.0 mi North 3.5 mph - N/A   Clear
5:35 PM 48.2 °F - 6.8 °F 19% 30.26 in 10.0 mi NNE 4.6 mph - N/A   Clear
6:15 PM 48.2 °F - 5.0 °F 17% 30.26 in 10.0 mi Calm Calm - N/A   Clear
6:35 PM 48.2 °F - 5.0 °F 17% 30.26 in 10.0 mi ENE 3.5 mph - N/A   Clear
6:55 PM 46.4 °F 45.2 °F 6.8 °F 20% 30.27 in 10.0 mi East 3.5 mph - N/A   Clear
7:15 PM 41.0 °F 38.0 °F 8.6 °F 26% 30.27 in 10.0 mi South 4.6 mph - N/A   Clear
7:35 PM 41.0 °F 39.0 °F 8.6 °F 26% 30.27 in 10.0 mi SSW 3.5 mph - N/A   Clear
7:55 PM 41.0 °F - 8.6 °F 26% 30.27 in 10.0 mi Calm Calm - N/A   Clear
8:15 PM 37.4 °F 33.8 °F 8.6 °F 30% 30.27 in 10.0 mi South 4.6 mph - N/A   Clear
8:35 PM 37.4 °F 32.8 °F 10.4 °F 33% 30.27 in 10.0 mi South 5.8 mph - N/A   Clear
8:55 PM 33.8 °F 29.6 °F 10.4 °F 38% 30.28 in 10.0 mi SE 4.6 mph - N/A   Clear
9:15 PM 37.4 °F 33.8 °F 12.2 °F 36% 30.28 in 10.0 mi SE 4.6 mph - N/A   Clear
9:35 PM 37.4 °F 32.8 °F 12.2 °F 36% 30.28 in 10.0 mi SSE 5.8 mph - N/A   Clear
9:55 PM 35.6 °F 32.8 °F 12.2 °F 38% 30.28 in 10.0 mi SSE 3.5 mph - N/A   Clear
10:15 PM 33.8 °F 28.6 °F 12.2 °F 41% 30.28 in 10.0 mi ESE 5.8 mph - N/A   Clear
10:35 PM 33.8 °F 29.6 °F 12.2 °F 41% 30.28 in 10.0 mi SE 4.6 mph - N/A   Clear
10:55 PM 33.8 °F 27.7 °F 12.2 °F 41% 30.28 in 10.0 mi SE 6.9 mph - N/A   Clear
11:15 PM 35.6 °F 29.9 °F 12.2 °F 38% 30.28 in 10.0 mi SSE 6.9 mph - N/A   Clear
11:35 PM 33.8 °F 27.0 °F 12.2 °F 41% 30.28 in 10.0 mi SSE 8.1 mph - N/A   Clear
11:55 PM 33.8 °F 27.7 °F 12.2 °F 41% 30.28 in 10.0 mi SSE 6.9 mph - N/A   Clear